Regional Weather Roundup
Issued by NWS

Home | Current Version | Previous Version | Graphics & Text | Print | Product List | Glossary On
Versions: 1 2 3 4 5 6 7 8 9 10 11 12 13 14 15 16 17 18 19 20 21 22 23 24 25 26 27 28 29 30 31 32 33 34 35 36 37 38 39 40 41 42 43 44 45 46 47 48 49 50
000
ASUS45 KBOU 040007
RWRCO

WEATHER ROUNDUP FOR COLORADO
NATIONAL WEATHER SERVICE DENVER/BOULDER CO
600 PM MDT SUN MAY 03 2015

NOTE: "FAIR" INDICATES FEW OR NO CLOUDS BELOW 12000 FEET WITH NO
SIGNIFICANT WEATHER AND/OR OBSTRUCTIONS TO VISIBILITY.

COZ001>005-013-030-031-040100-
...NORTHWEST COLORADO...

CITY           SKY/WX    TMP DP  RH WIND       PRES   REMARKS
CRAIG          PTSUNNY   63  39  41 N16G25    30.00R
HAYDEN         CLOUDY    61  34  36 W9        30.00S
MEEKER         PTSUNNY   64  37  36 SE7       30.00F
MOUNT WERNER   NOT AVBL
STEAMBOAT SPGS CLOUDY    60  32  34 SW5       30.02S
WALDEN         CLOUDY    54  30  40 NW12      30.09S
$$

COZ006>008-011-040100-
...WEST CENTRAL VALLEYS...

CITY           SKY/WX    TMP DP  RH WIND       PRES   REMARKS
GRAND JUNCTION CLOUDY    69  36  29 S14       29.91S
MONTROSE       CLOUDY    67  33  28 S8        29.98S
EAGLE          LGT RAIN  57  39  51 E13G22    30.08R
RIFLE          PTSUNNY   68  36  30 SE9       29.97R
DELTA          PTSUNNY   73  36  25 S9        29.94S
NUCLA          PTSUNNY   70  30  23 SW13      30.00S
$$

COZ017>023-064>068-040100-
...SOUTHWEST COLORADO...

CITY           SKY/WX    TMP DP  RH WIND       PRES   REMARKS
DURANGO        PTSUNNY   63  34  33 W10G21    30.02F
CORTEZ         SUNNY     65  35  33 NE7       29.99F
PAGOSA SPRINGS PTSUNNY   59  32  36 SE3       30.09R
TELLURIDE      TSTM      47  38  71 W8        30.20R
WOLF CREEK PAS NOT AVBL
$$

COZ009-010-012-014-032>034-037-058>063-040100-
...CENTRAL COLORADO...

CITY           SKY/WX    TMP DP  RH WIND       PRES   REMARKS
ASPEN          LGT RAIN  47  42  83 SE14      30.14R
BUENA VISTA    NOT AVBL
COPPER MTN     CLOUDY    37  30  75 W8        30.31S
BERTHOUD PASS  PTSUNNY   32  25  74 S8        30.34S WCI  25
COTTONWOOD PAS CLOUDY    46  32  57 SW13G18   30.22R
GUNNISON       CLOUDY    48  37  66 N14G24    30.15F
KREMMLING      CLOUDY    55  32  41 S9        30.08S
LEADVILLE      CLOUDY    43  30  60 VRB5      30.21R
MONARCH PASS   CLOUDY    34  32  93 E8        30.41S WCI  27
SALIDA         CLOUDY    53  41  63 S12       30.20R
SUNLIGHT       CLOUDY    43  34  70 SW3       30.28R
WILKERSON PASS PTSUNNY   37  32  81 CALM      30.31S
$$

COZ069>075-040100-
...SAN LUIS VALLEY/SANGRE DE CRISTO MOUNTAINS...

CITY           SKY/WX    TMP DP  RH WIND       PRES   REMARKS
ALAMOSA        CLOUDY    52  39  61 SE15      30.10R
LA VETA PASS   CLOUDY    41  34  75 MISG      30.23R
SAGUACHE       CLOUDY    54  36  50 E9        30.12S
$$

COZ035-036-038>040-040100-
...NORTHERN COLORADO FRONT RANGE...

CITY           SKY/WX    TMP DP  RH WIND       PRES   REMARKS
DENVER INTL AP TSTM      57  46  66 NE15      30.04R
DMNS CITY PARK   N/A     61  40  44 E2G9      30.01S
AURORA         PTSUNNY   59  45  59 N12       30.05R
FRONT RANGE AP RAIN      57  48  72 N17       30.05R
ERIE MUNI ARPT CLOUDY    62  42  48 E7        30.00F
BOULDER MUN AP CLOUDY    61  43  51 SW6       29.99S
CENTENNIAL     LGT RAIN  59  42  53 N15G28    30.03R
BROOMFIELD     NOT AVBL
FORT COLLINS   CLOUDY    63  43  48 NE15      30.03R
LONGMONT       CLOUDY    65  41  40 CALM      30.01R
$$

COZ041-046-047-076>085-087-088-040100-
...PIKES PEAK/PALMER DIVIDE AND SOUTHERN FOOTHILLS...

CITY           SKY/WX    TMP DP  RH WIND       PRES   REMARKS
COLO. SPRINGS  PTSUNNY   66  34  30 E8        30.02R
A. F. ACADEMY  PTSUNNY   57  45  62 NW10      30.06R
ELLICOTT       PTSUNNY  N/A N/A N/A E20       29.99F
FALCON         PTSUNNY   61  32  33 E16       30.07R
FORT CARSON    PTSUNNY   67  37  33 E9        29.98S
LIMON          CLOUDY    63  41  44 SW12      29.99F
MONUMENT HILL  TSTM      52  37  58 E13G23    30.10R
TRINIDAD       CLOUDY    62  40  44 W16G25    29.98S
$$

COZ042>045-048>051-090-091-040100-
...NORTHEAST COLORADO...

CITY           SKY/WX    TMP DP  RH WIND       PRES   REMARKS
GREELEY ARPT   CLOUDY    59  43  55 N13       30.00S
AKRON          CLOUDY    68  41  37 N14       29.96R
BURLINGTON     CLOUDY    77  39  25 NE7       29.89R
WRAY           MOSUNNY   78  38  23 N13       29.89R
STERLING       CLOUDY    68  46  45 N9        29.95R
HOLYOKE        NOT AVBL
FORT MORGAN    LGT RAIN  56 -26   3 NW21G32   30.03R
$$

COZ086-089-092>099-040100-
...SOUTHEAST COLORADO...

CITY           SKY/WX    TMP DP  RH WIND       PRES   REMARKS
PUEBLO         CLOUDY    71  39  31 E20       29.91S
LA JUNTA       TSTM      70  43  37 S21G46    29.89R
LAMAR          LGT RAIN  76  40  27 SE16G30   29.83R
SPRINGFIELD      N/A     73  41  31 E13       29.86S
$$


USA.gov is the U.S. government's official web portal to all federal, state and local government web resources and services.